This demonstration page uses our WeatherBlox Daily Observations layout. Learn more.

Left ArrowRight Arrow

40.92945, -100.16068

Hourly Observations for February 10, 2016

Temp ( °F °C ) Dew Point ( °F °C ) Humidity (%) Winds ( mph kmh ) Pressure ( in mb ) Visibility ( mi km ) Precip ( " mm )
12:15 am 00:15 Cloudy 32 0 25 -3.8 76 76 Calm 30.21 1023 10 16 N/A
12:35 am 00:35 Partly Cloudy 32 0 25 -3.9 75 75 Calm 30.18 1022 10 16 N/A
12:55 am 00:55 Clear 29 -1.4 25 -4.1 82 82 Calm 30.18 1022 10 16 N/A
1:15 am 01:15 Clear 31 -0.8 24 -4.2 78 78 Calm 30.18 1022 10 16 N/A
1:35 am 01:35 Clear 28 -2 24 -4.6 83 83 W 5 7 30.21 1023 10 16 N/A
1:55 am 01:55 Clear 28 -2.5 23 -5.2 82 82 WSW 3 6 30.18 1022 10 16 N/A
2:15 am 02:15 Clear 26 -3.1 22 -5.5 84 84 SW 6 9 30.18 1022 10 16 N/A
2:35 am 02:35 Clear 25 -4 21 -6.1 86 86 WSW 5 7 30.18 1022 10 16 N/A
2:55 am 02:55 Clear 26 -3.2 22 -5.4 85 85 WSW 6 9 30.18 1022 10 16 N/A
3:15 am 03:15 Clear 26 -3.3 22 -5.5 85 85 WSW 6 9 30.18 1022 10 16 N/A
3:35 am 03:35 Clear 25 -4 21 -6 86 86 WSW 5 7 30.18 1022 10 16 N/A
3:55 am 03:55 Clear 25 -4 21 -6 86 86 W 5 7 30.18 1022 10 16 N/A
4:15 am 04:15 Clear 23 -4.8 20 -6.6 87 87 W 7 11 30.15 1021 10 16 N/A
4:35 am 04:35 Clear 23 -5.2 19 -7 87 87 W 3 6 30.15 1021 10 16 N/A
4:55 am 04:55 Clear 21 -5.9 19 -7.3 90 90 WNW 3 6 30.15 1021 10 16 N/A
5:15 am 05:15 Clear 21 -6 19 -7.5 89 89 W 8 13 30.15 1021 10 16 N/A
5:35 am 05:35 Clear 21 -6.1 18 -7.6 89 89 NW 6 9 30.15 1021 10 16 N/A
5:55 am 05:55 Clear 21 -6 19 -7.2 91 91 WNW 8 13 30.15 1021 10 16 N/A
6:15 am 06:15 Clear 23 -4.8 21 -6 91 91 W 8 13 30.12 1020 10 16 N/A
6:35 am 06:35 Clear 24 -4.7 21 -6.1 90 90 WNW 9 15 30.12 1020 10 16 N/A
6:55 am 06:55 Clear 24 -4.5 21 -6.1 89 89 WNW 8 13 30.12 1020 10 16 N/A
7:15 am 07:15 Clear 23 -4.8 20 -6.6 87 87 W 7 11 30.09 1019 10 16 N/A
7:35 am 07:35 Clear 22 -5.4 19 -7 89 89 W 9 15 30.09 1019 10 16 N/A
7:55 am 07:55 Sunny 24 -4.5 21 -6.1 89 89 WNW 10 17 30.09 1019 10 16 N/A
8:15 am 08:15 Sunny 27 -2.6 23 -5.1 83 83 WNW 10 17 30.09 1019 10 16 N/A
8:35 am 08:35 Sunny 27 -2.8 22 -5.3 83 83 WNW 8 13 30.09 1019 10 16 N/A
8:55 am 08:55 Sunny 28 -2.3 23 -5 82 82 WNW 7 11 30.06 1018 10 16 N/A
9:15 am 09:15 Sunny 31 -0.7 25 -4 79 79 NW 9 15 30.06 1018 10 16 N/A
9:35 am 09:35 Sunny 32 0.1 26 -3.6 76 76 NW 8 13 30.06 1018 10 16 N/A
9:55 am 09:55 Sunny 34 1.1 26 -3.1 74 74 NW 5 7 30.03 1017 10 16 N/A
10:15 am 10:15 Sunny 38 3.5 28 -2.1 67 67 WNW 10 17 30.00 1016 10 16 N/A
10:35 am 10:35 Sunny 39 4 29 -1.5 68 68 WNW 10 17 30.00 1016 10 16 N/A
10:55 am 10:55 Sunny 41 5.1 29 -1.4 63 63 WNW 13 20 30.00 1016 10 16 N/A
11:15 am 11:15 Sunny 43 5.9 29 -1.4 60 60 WNW 15 24 30.00 1016 10 16 N/A
11:35 am 11:35 Sunny 44 6.5 29 -1.5 57 57 WNW 17 28 29.97 1015 10 16 N/A
11:55 am 11:55 Sunny 44 6.5 30 -1.1 59 59 WNW 15 24 29.97 1015 10 16 N/A
12:15 pm 12:15 Sunny 45 7.1 30 -1 57 57 WNW 17 28 29.94 1014 10 16 N/A
12:35 pm 12:35 Sunny 45 7.3 31 -0.8 57 57 WNW 14 22 29.94 1014 10 16 N/A
12:55 pm 12:55 Sunny 46 7.9 31 -0.7 55 55 WNW 14 22 29.94 1014 10 16 N/A
1:15 pm 13:15 Sunny 47 8.3 31 -0.6 54 54 WNW 17 28 29.94 1014 10 16 N/A
1:35 pm 13:35 Sunny 47 8.5 31 -0.6 53 53 WNW 17 28 29.94 1014 10 16 N/A
1:55 pm 13:55 Sunny 46 8 31 -0.5 55 55 W 16 26 29.94 1014 10 16 N/A
2:15 pm 14:15 Sunny 47 8.6 32 0 55 55 WNW 13 20 29.88 1012 10 16 N/A
2:35 pm 14:35 Sunny 48 9.1 32 -0.1 53 53 WNW 12 19 29.88 1012 10 16 N/A
2:55 pm 14:55 Sunny 49 9.5 32 -0.2 51 51 WNW 15 24 29.91 1013 10 16 N/A
3:15 pm 15:15 Sunny 50 9.8 32 0 51 51 WNW 10 17 29.88 1012 10 16 N/A
3:35 pm 15:35 Sunny 49 9.7 32 0.1 52 52 WNW 10 17 29.91 1013 10 16 N/A
3:55 pm 15:55 Sunny 49 9.7 32 0 51 51 WNW 14 22 29.91 1013 10 16 N/A
4:15 pm 16:15 Sunny 50 9.8 32 0 51 51 WNW 12 19 29.91 1013 10 16 N/A
4:35 pm 16:35 Sunny 49 9.2 32 0.1 53 53 WNW 12 19 29.94 1014 10 16 N/A
4:55 pm 16:55 Sunny 47 8.3 32 0.2 57 57 WNW 10 17 29.94 1014 10 16 N/A
5:15 pm 17:15 Sunny 46 7.7 33 0.3 60 60 W 5 7 29.94 1014 10 16 N/A
5:35 pm 17:35 Sunny 45 7.2 32 0.1 61 61 W 8 13 29.97 1015 10 16 N/A
5:55 pm 17:55 Sunny 43 5.9 32 0 66 66 WNW 9 15 30.00 1016 10 16 N/A
6:15 pm 18:15 Clear 42 5.5 32 0 68 68 NW 10 17 30.00 1016 10 16 N/A
6:35 pm 18:35 Clear 41 5.2 32 0 69 69 NNW 9 15 30.03 1017 10 16 N/A
6:55 pm 18:55 Clear 38 3.4 31 -0.4 76 76 NW 8 13 30.06 1018 10 16 N/A
7:15 pm 19:15 Clear 38 3.2 31 -0.3 78 78 NW 8 13 30.06 1018 10 16 N/A
7:35 pm 19:35 Clear 38 3.3 32 -0.2 78 78 NW 9 15 30.09 1019 10 16 N/A
7:55 pm 19:55 Clear 37 3 31 -0.6 77 77 WNW 7 11 30.09 1019 10 16 N/A
8:15 pm 20:15 Clear 36 2.4 31 -0.6 81 81 NW 6 9 30.12 1020 10 16 N/A
8:35 pm 20:35 Clear 34 1.1 30 -1.2 85 85 NW 7 11 30.12 1020 10 16 N/A
8:55 pm 20:55 Clear 36 2.2 30 -1.1 79 79 N 6 9 30.12 1020 10 16 N/A
9:15 pm 21:15 Clear 39 4 29 -1.6 67 67 N 5 7 30.09 1019 10 16 N/A
9:35 pm 21:35 Clear 36 2.2 29 -1.7 76 76 NE 3 6 30.12 1020 10 16 N/A
9:55 pm 21:55 Clear 37 2.5 29 -1.7 74 74 NE 3 6 30.12 1020 10 16 N/A
10:15 pm 22:15 Clear 37 2.7 29 -1.8 73 73 Calm 30.15 1021 10 16 N/A
10:35 pm 22:35 Clear 37 2.8 29 -1.4 74 74 NNE 7 11 30.15 1021 10 16 N/A
10:55 pm 22:55 Clear 34 1.3 28 -2 79 79 N 6 9 30.21 1023 10 16 N/A
11:15 pm 23:15 Clear 34 0.9 29 -1.6 84 84 N 3 6 30.21 1023 10 16 N/A
11:35 pm 23:35 Clear 34 1.2 28 -2.1 79 79 NNE 7 11 30.21 1023 10 16 N/A
11:55 pm 23:55 Clear 32 -0.1 27 -2.7 83 83 ENE 8 13 30.21 1023 10 16 N/A

Powered by AerisWeather